Overview Statistics Trail Chart Weather Telemetry Raw packets
 

This is the latest recevied weather packets stored in our database for station/object IW1QLH-13. If no packets are shown the sender has not sent any weather packets the latest 10 day(s).

<< 7 8 9 10 11 12 13 >>
Time Temp. Humidity Pressure Rain* Wind** Luminosity Snow
1788513261 28.89° C 11% - - - 657 W/m² -
1788512649 30° C 11% - - - 629 W/m² -
1788512037 28.89° C 11% - - - 586 W/m² -
1788511425 28.89° C 11% - - - 557 W/m² -
1788510814 30.56° C 11% - - - 514 W/m² -
1788510200 28.89° C 11% - - - 486 W/m² -
1788509588 28.89° C 11% - - - 429 W/m² -
1788508977 28.89° C 11% - - - 400 W/m² -
1788508362 27.78° C 11% - - - 371 W/m² -
1788507750 28.89° C 11% - - - 328 W/m² -
1788507137 30° C 11% - - - 271 W/m² -
1788506526 30° C 11% - - - 243 W/m² -
1788505911 28.89° C 11% - - - 214 W/m² -
1788504688 26.67° C 11% - - - 128 W/m² -
1788503954 25.56° C 11% - - - 85 W/m² -
1788503342 25° C 11% - - - 57 W/m² -
1788502730 22.78° C 11% - - - 42 W/m² -
1788502118 20.56° C 11% - - - 42 W/m² -
1788501506 20.56° C 11% - - - 28 W/m² -
1788500773 20.56° C 11% - - - 28 W/m² -
1788500099 20.56° C 11% - - - 28 W/m² -
1788498997 20.56° C 11% - - - 14 W/m² -
1788497589 20.56° C 11% - - - 14 W/m² -
1788496488 20.56° C 11% - - - 14 W/m² -
1788495447 20.56° C 11% - - - 14 W/m² -

* Rain since midnight (hover to see other rain measurements)
** Current wind speed in m/s (hover to see current wind gust speed)